Location: Marcé
(47.5801°N, 0.3280°W)
Time: 17:27:01
(UTC+02:00)

ACS3 Solar Sail - Pass Details

Date: 23 June 2024
Orbit: 992 x 1023 km, 97.4° (Epoch: 12 July)

Event Time Altitude Azimuth Distance (km) Brightness Sun altitude
Exits shadow 01:01:00 - 221° (SW) 3,179 7.2 -17.6°
Reaches altitude 10° 01:02:34 10° 231° (SW) 2,763 6.9 -17.7°
Maximum altitude 01:06:45 19° 274° (W) 2,196 6.8 -17.9°
Drops below altitude 10° 01:10:59 10° 317° (NW) 2,767 8.1 -18.0°
Sets 01:14:21 0° 335° (NNW) 3,720 9.4 -18.1°
